Probability
0 0 0 0 0 0 0 0 0 0 0 0 0 0 0 0 1 0 0 0 0 1 1 1 0 0 0 1 2 2 2 1 0 0 0 0 0 0 0 0 0 0 0
0 0 0 0 0 0 0 0 0 0 0 0 0 0 0 0 1 0 0 1 1 2 3 2 1 0 1 2 4 5 4 1 0 0 0 0 0 0 0 0 0 0 0
0 0 0 0 0 0 0 0 0 0 0 0 0 0 0 0 0 0 0 1 3 5 6 6 5 4 3 3 5 8 11 10 8 5 2 0 0 0 0 0 0 0 0
0 0 0 0 0 0 0 0 0 0 0 0 0 0 0 0 0 0 0 1 2 5 7 9 12 12 11 9 7 9 17 27 30 20 6 0 0 0 0 0 0 0 0
0 0 0 0 0 0 0 0 0 0 0 0 0 0 0 0 0 0 0 0 0 2 4 6 12 18 21 23 21 17 20 37 47 31 8 0 0 0 0 0 0 0 0
0 0 0 0 0 0 0 0 0 0 0 0 0 0 0 0 0 0 0 0 0 0 0 1 5 11 20 31 38 37 34 40 41 23 6 0 0 1 2 1 0 0 0
0 0 0 0 0 0 0 0 0 0 0 0 0 0 0 0 0 0 0 0 0 0 0 0 0 3 9 20 36 49 55 49 28 10 3 1 0 3 7 5 1 0 0
0 0 0 0 0 0 0 0 0 0 0 0 0 0 0 0 0 0 0 0 0 0 0 0 0 0 1 5 17 33 50 49 26 6 2 1 2 8 15 12 4 0 0
0 0 0 0 0 0 0 0 0 0 0 0 0 0 0 0 0 0 0 0 0 0 0 0 0 0 0 0 3 10 22 28 18 5 1 2 8 20 27 20 8 2 3
0 0 0 0 0 0 0 0 0 0 0 0 0 0 0 0 0 0 0 0 0 0 0 0 0 0 0 0 0 0 4 7 6 3 2 8 23 39 44 35 20 13 13
0 0 0 0 0 0 0 0 0 0 0 0 0 0 0 0 0 0 0 0 0 0 0 0 0 0 0 0 0 0 0 0 0 1 6 24 48 61 61 56 43 30 28
0 0 0 0 0 0 0 0 0 0 0 0 0 0 0 0 0 0 0 0 0 0 0 0 0 0 0 0 0 0 0 0 0 0 9 35 64 76 77 76 67 50 39
0 0 0 0 0 0 0 0 0 0 0 0 0 0 0 0 0 0 0 0 0 0 0 0 0 0 0 0 0 0 0 0 0 0 6 27 53 72 84 89 85 69 54
0 0 0 0 0 0 0 0 0 0 0 0 0 0 0 0 0 0 0 0 0 0 0 0 0 0 0 0 0 0 0 0 0 0 2 10 24 46 71 89 93 86 75
0 0 0 0 0 0 0 0 0 0 0 0 0 0 0 0 0 0 0 0 0 0 0 0 0 0 0 0 0 0 0 0 0 0 0 1 5 19 48 77 92 94 93
0 0 0 0 0 0 0 0 0 0 0 0 0 0 0 0 0 0 0 0 0 0 0 0 0 0 0 0 0 0 0 0 0 0 0 0 0 6 26 57 82 95 98
0 0 0 0 0 0 0 0 0 0 0 0 0 0 0 0 0 0 0 0 0 0 0 0 0 0 0 0 0 0 0 0 0 0 0 0 0 1 11 35 65 87 96
0 0 0 0 0 0 0 0 0 0 0 0 0 0 0 0 0 0 0 0 0 0 0 0 0 0 0 0 0 0 0 0 0 0 0 0 0 0 3 17 43 70 86
0 0 0 0 0 0 0 0 0 0 0 0 0 0 0 0 0 0 0 0 0 0 0 0 0 0 0 0 0 0 0 0 0 0 0 0 0 0 0 6 20 44 62
0 0 0 0 0 0 0 0 0 0 0 0 0 0 0 0 0 0 0 0 0 0 0 0 0 0 0 0 0 0 0 0 0 0 0 0 0 0 0 1 6 19 34
0 0 0 0 0 0 0 0 0 0 0 0 0 0 0 0 0 0 0 0 0 0 0 0 0 0 0 0 0 0 0 0 0 0 0 0 0 0 0 0 1 6 12
0 0 0 0 0 0 0 0 0 0 0 0 0 0 0 0 0 0 0 0 0 0 0 0 0 0 0 0 0 0 0 0 0 0 0 0 0 0 0 0 0 2 3
0 0 0 0 0 0 0 0 0 0 0 0 0 0 0 0 0 0 0 0 0 0 0 0 0 0 0 0 0 0 0 0 0 0 0 0 0 0 0 0 0 0 1
0 0 0 0 0 0 0 0 0 0 0 0 0 0 0 0 0 0 0 0 0 0 0 0 0 0 0 0 0 0 0 0 0 0 0 0 0 0 0 0 0 0 0
0 0 0 0 0 0 0 0 0 0 0 0 0 0 0 0 0 0 0 0 0 0 0 0 0 0 0 0 0 0 0 0 0 0 0 0 0 0 0 0 0 0 0
0 0 0 0 0 0 0 0 0 0 0 0 0 0 0 0 0 0 0 0 0 0 0 0 0 0 0 0 0 0 0 0 0 0 0 0 0 0 0 0 0 0 0
Wind_Speed
10 13 26 27 27 27 27 27 27 27 27 27 27 27 26 25 23 21 19 17 15 14 13 13 13 13 13 13 12 10 8 8 7 5 4 4 4 4 4 3 1 1 5
10 14 25 27 27 27 27 27 27 27 27 27 27 27 27 26 26 25 24 22 20 18 16 15 14 13 14 14 13 12 11 9 8 7 5 5 5 6 6 5 3 4 7
13 15 19 27 27 27 27 27 27 27 27 27 28 28 27 27 26 26 26 25 24 22 20 18 16 15 14 14 14 14 13 11 10 8 7 4 5 8 8 8 6 7 8
15 15 18 27 27 27 27 27 27 27 27 27 27 28 28 27 26 26 26 26 26 25 24 22 20 18 16 15 14 14 14 13 11 9 5 4 5 9 11 11 10 9 8
15 15 19 27 28 27 27 28 27 27 27 27 27 28 28 28 27 26 26 26 25 25 25 24 23 21 19 17 16 15 15 15 12 9 5 5 5 9 12 13 13 11 10
12 13 18 28 28 28 28 28 28 28 28 28 28 27 27 27 27 26 26 26 26 25 25 24 24 24 22 20 18 16 15 15 11 6 6 6 5 11 14 15 15 13 13
11 12 17 27 28 28 28 28 28 28 28 28 28 28 27 27 27 26 26 27 26 26 26 25 24 25 24 23 21 19 17 14 9 6 6 6 7 13 15 16 17 15 14
10 11 14 25 28 28 27 28 28 27 28 28 28 28 27 27 27 26 27 27 27 26 26 25 25 25 25 24 23 21 18 15 11 8 7 7 12 16 16 16 17 17 16
9 11 13 14 18 24 26 27 27 27 27 27 27 27 27 27 27 27 28 28 27 27 26 26 25 26 25 24 23 23 22 18 10 6 9 7 13 17 17 17 18 18 17
10 11 12 12 15 14 14 24 26 26 27 27 27 27 26 24 24 25 25 27 27 27 26 26 26 26 26 24 24 24 23 17 8 8 6 8 16 19 19 18 19 19 19
14 11 11 12 14 14 13 19 19 22 24 23 20 25 21 12 12 15 23 27 27 27 27 27 27 26 25 22 23 24 18 9 11 8 7 13 18 20 21 20 19 21 20
12 12 11 13 15 14 13 11 8 11 11 12 12 13 10 10 11 16 22 25 26 26 25 26 27 23 19 12 15 18 9 13 10 8 8 17 20 21 22 22 21 22 22
7 12 12 12 12 12 10 9 7 7 8 9 12 12 9 8 8 10 8 12 13 17 12 17 16 12 12 12 11 10 11 10 7 8 10 18 20 21 21 22 23 23 24
9 10 9 9 10 10 9 8 7 8 7 9 10 12 9 7 8 9 8 9 9 8 10 10 10 13 14 14 13 13 13 10 9 8 10 20 22 21 21 21 24 24 25
7 8 8 8 10 10 9 9 9 8 9 10 9 10 11 8 9 9 8 8 9 8 10 10 11 13 14 14 13 14 15 14 13 11 9 19 22 21 21 22 23 25 25
6 7 8 8 10 10 9 9 8 8 9 9 8 10 12 9 9 9 10 8 8 9 9 10 12 11 11 11 13 14 15 14 12 13 11 13 19 21 21 21 21 24 25
5 6 9 10 10 9 9 10 9 8 9 9 9 10 12 11 10 10 9 8 9 10 10 10 11 9 11 11 13 14 13 12 14 15 14 10 10 16 19 20 19 21 24
5 6 8 11 9 8 8 8 6 7 8 8 8 8 12 13 12 10 9 8 9 9 9 10 9 11 11 11 11 11 11 12 15 15 13 11 9 9 12 18 18 19 22
5 6 7 8 9 8 8 6 6 5 6 6 6 7 11 12 13 11 8 8 10 8 8 10 11 11 12 12 12 12 11 12 13 13 13 12 10 9 8 12 16 16 18
5 6 7 8 8 8 6 5 5 5 5 5 5 7 10 10 13 11 8 9 9 8 8 9 12 11 11 12 14 13 13 13 11 8 9 9 9 9 8 9 8 9 15
7 7 7 7 8 7 7 8 9 9 8 7 7 9 10 11 12 10 9 9 9 8 10 12 12 12 11 11 12 14 11 10 8 5 6 7 8 10 9 8 6 6 6
5 6 6 6 7 7 6 5 6 7 5 6 6 7 8 10 11 11 10 9 9 9 10 11 12 9 10 10 11 11 8 6 5 8 5 6 7 9 11 11 9 7 6
4 5 7 6 7 7 7 5 7 5 5 5 6 6 8 10 10 9 10 9 9 8 9 10 10 11 11 10 8 7 7 7 12 7 5 5 7 9 9 9 10 11 9
3 4 5 6 7 7 7 7 9 10 8 8 7 7 9 9 9 9 10 9 9 9 9 10 10 10 10 10 9 6 8 9 8 9 7 5 8 9 9 10 10 11 10
4 5 5 6 6 7 7 7 8 8 7 8 9 9 8 7 8 10 10 8 10 9 10 11 11 10 8 10 10 9 10 8 8 8 13 12 10 6 7 9 9 8 9
5 6 6 7 7 7 7 7 8 9 10 12 12 10 9 7 6 9 11 8 9 9 10 11 10 11 10 11 10 9 9 8 7 7 11 14 14 11 10 8 8 7 6
Wind_Direction
341 350 2 10 14 18 19 20 21 21 21 19 17 14 11 9 7 3 358 352 346 341 336 333 331 328 324 320 318 315 309 303 300 297 292 280 244 202 169 146 159 184 171
349 359 5 11 14 16 18 19 20 20 20 20 18 16 13 12 10 8 4 360 354 347 340 333 326 322 319 315 310 306 299 293 288 283 278 274 260 233 198 169 165 173 171
13 5 3 13 13 14 16 17 18 18 18 18 18 15 14 13 11 10 8 5 0 354 347 339 331 322 314 309 304 298 292 286 281 274 269 262 260 246 219 185 172 168 172
21 10 7 15 14 14 15 16 16 16 16 16 16 14 12 11 10 10 8 5 2 358 354 347 338 328 318 310 303 295 288 282 276 270 261 248 251 253 232 201 188 180 179
23 12 7 17 14 14 15 15 14 15 14 14 14 12 11 9 7 6 6 3 0 358 355 351 346 338 326 316 307 297 286 279 273 266 253 249 250 264 248 216 198 189 186
23 13 9 18 15 14 15 15 13 13 12 11 10 9 8 7 4 4 4 360 358 356 354 351 349 346 340 327 314 302 291 281 274 259 250 246 245 260 255 223 203 195 191
23 17 14 18 16 14 15 14 12 12 11 9 8 6 6 5 2 2 2 358 355 354 351 350 350 348 345 340 327 312 299 290 275 255 249 246 245 257 256 225 206 200 196
25 19 18 17 16 14 13 13 11 11 10 8 6 5 5 3 1 1 0 355 352 352 349 348 349 347 345 342 340 331 316 302 283 263 250 246 250 254 251 230 212 204 201
26 23 18 15 14 11 10 11 10 9 8 7 5 4 4 3 1 0 357 353 351 350 348 347 347 345 342 341 341 340 335 319 292 271 263 253 255 254 247 233 218 210 204
28 25 19 15 13 6 2 8 8 7 6 6 4 3 5 4 0 359 354 351 350 348 349 347 346 343 342 340 339 338 335 329 307 280 266 261 260 258 251 237 222 214 207
25 21 18 17 12 5 2 3 4 5 3 4 1 2 4 359 353 358 351 351 350 348 349 346 345 344 343 338 337 337 337 334 321 300 276 267 265 262 255 243 226 218 211
17 15 19 19 12 5 2 357 358 359 356 355 355 357 359 357 353 358 349 350 349 347 348 345 344 344 342 334 332 336 332 330 326 316 298 283 274 269 262 248 234 222 216
16 17 16 19 9 3 0 355 360 354 353 352 353 356 358 353 351 352 346 345 342 345 345 341 339 339 336 332 328 327 329 328 322 317 311 305 294 281 271 256 241 228 220
26 16 8 19 9 1 360 353 359 355 353 353 350 355 359 354 353 350 345 339 339 342 339 337 333 333 335 330 328 328 328 323 317 312 309 314 310 298 283 265 246 234 224
28 11 4 19 12 3 3 357 1 354 353 349 348 355 358 353 352 347 341 336 335 339 337 335 332 333 332 329 327 327 323 318 311 311 309 308 310 305 294 277 252 236 227
29 14 4 18 12 3 4 358 355 353 350 347 349 354 355 351 348 345 338 333 339 339 334 333 326 329 325 324 323 322 316 312 310 311 305 304 305 306 302 287 262 240 230
34 19 11 13 8 360 0 357 355 349 348 348 349 352 351 349 347 344 336 337 340 335 332 331 324 326 323 322 319 317 312 311 309 306 303 297 297 301 302 297 274 249 234
39 25 14 8 2 356 354 349 343 344 345 345 347 350 348 349 348 343 335 339 338 337 335 330 330 328 323 320 316 312 310 309 304 299 297 294 294 292 296 296 287 264 244
41 24 11 1 356 350 344 338 328 331 337 339 342 346 347 347 346 340 334 339 339 337 334 333 334 328 323 321 316 311 310 303 295 296 298 297 292 288 285 290 287 277 260
35 23 11 357 350 343 340 338 335 341 340 339 339 344 346 345 343 338 339 338 340 338 335 332 330 326 322 320 318 313 303 292 286 287 299 308 305 302 297 291 286 277 266
26 13 3 351 344 346 350 351 348 346 342 341 341 341 342 342 341 338 344 337 339 336 332 331 329 326 328 325 320 316 298 279 279 304 314 317 334 342 328 313 297 283 272
15 354 353 346 340 344 342 334 331 325 320 327 322 327 334 338 338 343 340 336 336 332 329 331 327 327 325 328 322 318 316 310 339 317 304 314 341 340 337 335 326 307 282
353 343 356 342 338 337 334 333 336 324 318 329 329 332 334 333 332 331 332 331 331 329 326 325 323 328 324 320 319 314 316 325 326 299 301 322 337 329 329 327 334 328 305
333 339 345 338 333 331 334 340 343 344 335 331 328 323 323 323 325 330 328 328 328 325 322 321 328 318 318 318 316 298 298 303 303 311 311 320 321 322 320 327 326 319 317
350 347 338 333 328 328 331 333 332 329 321 322 325 322 320 317 319 325 325 325 325 322 319 317 318 317 315 310 309 308 304 298 284 292 303 314 317 309 314 313 307 306 308
351 343 335 332 327 328 331 330 327 325 324 328 330 326 327 323 319 319 324 322 319 317 317 316 316 313 310 306 306 302 302 300 302 302 300 307 308 310 309 298 294 294 298